Wind_Speed
15 16 17 18 19 19 19 19 19 20 20 20 20 20 21 22 22 22 23 23 24 26 27 25 24 24 25 27 28 29 27 24 24 25 25 26 24 21 21 22 21 21 22 22 23 23 23 22 22 24 23 22 21 21 21 20 20 21 21 22 23 21 21 18 9 6 12 17 20 23 24 24 24 24 24 23 22 22 22 21 20 20 23 24 24
16 16 17 18 19 19 19 19 20 21 21 20 21 21 22 23 23 22 22 23 24 25 26 25 24 26 28 29 30 30 27 24 23 21 21 22 20 19 21 21 19 20 21 22 22 23 24 23 22 22 23 23 21 21 21 20 21 22 22 22 23 23 23 22 15 10 11 14 19 24 23 21 22 22 25 25 24 24 23 22 23 22 22 23 24
16 16 18 18 19 19 20 20 21 22 22 21 22 23 22 25 26 23 22 23 24 25 27 27 27 29 31 30 29 29 26 22 19 16 17 19 18 17 17 18 20 20 20 20 21 24 24 22 22 21 21 22 22 21 21 20 21 22 22 23 25 24 24 24 19 15 13 14 19 23 21 22 25 23 25 28 25 24 24 22 24 25 21 21 23
17 17 18 19 20 21 21 21 22 23 23 22 23 24 22 25 29 27 23 24 24 24 27 30 32 32 33 30 25 24 21 19 17 15 16 17 17 16 13 14 17 19 19 18 19 25 25 21 21 20 20 21 21 22 21 20 20 19 19 21 23 22 24 24 20 17 17 15 18 23 22 24 26 22 22 28 27 25 25 23 24 25 22 21 22
17 18 19 19 20 22 22 23 23 23 24 23 23 24 23 24 28 29 26 25 25 25 27 31 34 33 33 31 24 19 18 16 17 16 14 14 13 14 13 15 17 18 18 17 19 23 24 23 23 20 19 21 20 21 21 20 20 17 16 19 21 22 23 23 21 20 20 17 16 21 22 20 24 23 20 26 28 26 25 24 24 25 23 23 22
18 19 20 20 21 22 23 23 23 24 24 24 24 24 24 24 27 28 28 27 26 28 28 30 33 34 33 32 27 22 20 19 18 17 15 12 11 12 15 17 18 18 19 19 19 19 18 20 23 21 21 21 21 21 20 19 19 15 12 17 19 23 23 22 22 22 21 19 17 20 21 18 22 27 21 23 29 28 26 25 24 25 26 25 23
19 20 20 21 22 22 23 23 24 24 24 24 24 24 25 25 26 28 29 28 27 29 30 30 31 34 32 32 31 28 25 23 21 21 20 16 13 11 13 15 16 17 20 21 21 18 15 18 21 21 23 22 21 22 20 18 17 14 13 15 17 22 23 22 24 24 21 19 18 21 22 18 22 28 25 23 29 28 27 26 24 25 27 27 26
19 20 21 22 22 22 23 23 24 25 24 24 25 25 25 25 25 27 30 31 29 29 29 29 30 32 30 30 32 31 30 30 28 27 25 21 16 13 13 13 14 16 19 20 18 16 16 19 21 22 24 24 23 21 20 18 16 16 17 18 19 22 24 22 24 24 21 19 19 21 22 20 24 30 29 25 27 26 27 28 25 24 27 27 25
19 20 21 21 21 21 22 22 23 24 24 24 25 26 25 25 25 26 28 31 33 33 31 29 31 34 32 30 31 32 35 37 34 31 28 24 20 15 15 14 13 15 17 18 17 16 17 19 23 27 26 23 22 21 20 19 17 17 18 20 22 24 24 23 23 24 22 18 17 20 20 19 23 28 27 24 26 28 28 28 25 24 26 28 24
19 19 20 20 20 20 21 22 22 23 24 24 25 25 25 25 25 26 27 29 34 38 38 33 33 35 34 33 31 31 36 41 38 32 28 25 23 18 16 15 13 13 15 17 17 16 16 18 22 28 27 23 21 21 21 20 18 19 19 20 23 24 25 24 23 23 23 19 18 19 18 18 22 27 28 23 23 30 30 27 26 23 24 25 23
18 18 18 18 19 20 21 22 22 23 24 24 25 25 25 25 25 25 27 28 31 36 40 38 35 37 38 38 34 31 36 43 40 34 30 27 24 21 18 16 15 14 14 14 16 16 16 16 16 19 23 24 22 20 20 20 20 20 20 20 22 25 27 27 25 24 23 22 21 20 18 18 21 26 29 24 20 28 29 27 26 24 22 21 18
18 18 19 19 20 21 21 22 22 23 24 24 25 25 25 26 26 25 26 28 29 31 36 37 36 37 39 41 38 33 38 46 44 37 34 29 26 23 20 17 16 16 15 14 15 15 15 15 13 13 18 22 22 20 20 20 20 20 20 19 21 25 26 26 27 25 23 22 21 19 19 19 19 22 27 24 19 23 26 26 27 26 23 21 19
18 19 20 21 22 22 22 23 23 23 24 24 25 25 26 26 26 26 25 26 27 27 30 33 35 35 36 40 41 37 39 48 48 41 36 33 28 25 22 18 17 17 16 15 15 13 13 15 15 13 13 17 19 19 20 20 18 17 18 19 21 24 23 24 26 26 24 21 20 21 21 20 21 22 23 23 20 20 21 22 25 27 24 22 23
19 20 21 22 23 23 24 23 23 23 24 24 24 25 26 26 26 26 25 26 27 26 26 28 31 34 35 38 40 37 39 49 51 44 40 35 30 26 23 19 17 16 16 16 16 15 15 15 16 13 8 9 14 17 18 18 17 16 17 18 21 23 22 22 24 24 25 21 18 20 21 19 20 20 18 22 25 25 24 20 19 25 24 20 18
19 20 21 22 23 23 24 24 24 24 24 24 24 24 24 25 25 25 25 25 26 27 26 26 27 30 33 37 39 36 37 46 52 48 44 39 32 27 24 20 18 16 16 17 16 15 14 12 12 11 7 7 14 15 15 15 15 15 16 16 16 20 20 20 21 21 23 22 16 16 18 17 17 16 15 19 22 25 30 26 19 19 20 17 12
19 19 20 21 22 23 23 23 24 25 25 26 26 25 24 24 23 23 24 24 25 27 27 26 27 27 29 34 38 35 36 44 50 50 47 42 35 29 26 23 20 19 19 19 15 11 10 10 9 8 8 10 14 15 17 18 17 16 17 15 14 17 20 21 21 18 18 19 17 15 14 12 15 16 15 16 16 18 26 27 21 16 16 14 12
19 19 20 21 22 22 22 23 24 24 26 26 27 27 26 25 25 23 23 23 25 26 26 26 27 27 28 32 35 34 35 41 47 49 49 46 39 33 28 25 22 21 21 19 13 9 9 9 8 6 9 12 12 13 17 20 18 15 16 17 15 17 19 20 20 18 16 16 17 15 13 12 16 17 15 15 14 15 18 21 21 19 17 14 12
18 18 19 20 21 21 22 23 23 24 25 26 27 28 27 27 27 25 23 23 23 25 25 24 25 27 28 31 32 31 33 39 44 46 48 47 43 37 31 27 24 23 22 19 13 10 11 11 10 7 7 10 12 13 16 19 17 13 14 17 17 17 19 18 17 17 16 15 16 15 14 15 16 17 16 15 15 15 16 18 21 22 18 14 13
17 18 18 19 20 21 22 22 22 24 26 25 26 27 27 26 27 26 25 23 22 23 24 24 24 25 27 29 30 31 32 36 41 44 45 46 45 40 34 31 27 24 23 19 16 15 14 13 12 11 8 7 9 11 13 18 18 15 14 17 17 16 17 17 16 16 15 15 14 12 11 12 12 13 13 14 15 15 13 11 15 20 22 20 20
17 17 18 19 20 20 21 22 23 24 25 25 25 26 25 26 27 27 25 24 22 22 24 24 23 23 24 27 29 30 32 35 39 42 43 44 44 41 38 33 28 24 23 22 20 20 19 16 14 13 12 10 6 8 13 16 16 15 16 16 16 15 16 16 16 14 13 13 12 10 9 8 8 9 10 10 11 12 10 10 11 14 16 20 25
16 17 17 18 19 19 20 21 21 22 24 24 24 24 24 26 27 27 26 25 24 23 24 23 22 22 23 24 26 29 32 35 37 39 41 42 42 40 39 36 30 25 24 24 24 24 23 21 17 15 14 13 10 4 7 11 13 14 15 17 16 14 13 14 15 14 14 14 13 13 11 10 9 8 8 7 7 8 10 13 13 10 9 14 21
16 16 16 17 18 18 19 20 20 21 23 24 23 23 23 25 27 27 26 25 24 24 24 23 21 21 22 22 23 26 30 34 36 36 37 39 39 38 37 35 31 28 27 27 26 25 24 22 19 16 14 13 11 7 3 4 9 12 13 16 17 15 14 16 17 17 17 16 15 16 15 14 14 13 13 13 12 11 11 12 12 10 10 12 17
15 14 15 17 18 18 18 18 18 19 21 22 22 22 21 22 25 26 25 25 24 23 25 24 21 21 21 20 22 25 28 31 35 36 37 37 36 35 34 33 31 29 28 28 27 26 23 22 20 16 14 16 14 8 5 4 7 12 15 17 18 18 19 21 19 18 18 18 17 17 16 15 15 16 16 18 18 17 16 14 12 13 15 15 16
14 15 17 17 17 18 17 16 15 16 18 20 21 21 20 21 22 23 23 24 23 23 24 25 22 21 21 21 22 23 25 28 32 35 36 36 35 34 32 31 30 29 28 27 27 27 25 22 21 18 16 18 20 17 14 14 14 17 20 20 21 21 20 19 18 18 19 19 19 18 18 17 16 16 16 18 19 19 19 20 19 18 19 20 19
14 17 17 15 16 17 16 15 13 14 15 17 19 20 21 20 20 20 21 21 22 21 23 24 23 21 22 23 23 24 24 26 29 32 33 34 35 34 32 30 28 27 27 27 26 26 25 23 22 21 20 19 21 23 23 22 20 18 18 17 19 20 19 18 19 22 23 22 22 21 21 20 18 17 17 18 19 19 20 22 22 22 23 24 24
15 15 14 14 14 15 14 14 13 13 13 15 16 18 19 17 17 18 18 19 20 20 20 22 22 20 21 22 23 23 23 25 28 30 30 30 31 33 33 31 29 26 24 24 24 24 25 25 25 25 26 25 24 26 27 26 26 24 22 21 22 23 24 24 25 26 25 23 23 22 21 20 20 19 18 18 18 19 20 22 23 22 22 24 25
13 12 13 14 14 14 15 16 15 13 12 12 13 16 16 14 14 16 16 16 18 18 19 20 22 21 20 20 21 22 24 26 29 31 29 26 27 29 30 31 30 28 23 21 21 22 23 24 26 26 28 28 28 29 29 28 29 30 29 29 29 29 29 30 30 28 26 24 24 24 22 22 22 22 21 21 19 17 17 20 22 22 21 23 25
11 11 12 14 15 15 15 16 16 16 13 9 9 13 14 12 11 13 15 15 16 17 17 19 21 20 19 19 20 21 23 27 29 29 26 23 23 24 27 28 28 28 26 21 19 19 19 20 22 24 25 27 28 29 31 32 32 33 32 31 31 31 30 30 31 30 27 26 25 25 25 25 24 24 24 23 22 19 18 19 20 20 21 23 24
12 12 12 13 15 15 15 15 17 17 15 9 6 8 11 12 10 9 12 14 15 16 17 18 20 21 19 18 19 20 22 26 27 26 23 20 18 19 21 23 24 24 25 23 22 21 21 23 25 25 25 26 26 26 27 28 29 29 30 30 31 31 31 31 32 30 28 26 26 26 26 26 26 26 25 25 23 21 19 18 17 16 18 20 20
12 12 12 12 13 13 14 15 16 16 16 13 9 5 6 9 11 10 11 12 13 14 16 18 20 21 22 22 20 20 22 24 24 24 24 20 17 16 17 19 20 20 22 23 25 26 26 26 27 27 26 26 26 25 24 23 23 24 23 23 24 26 27 28 29 27 25 25 25 24 24 25 25 25 25 24 22 20 19 19 18 18 18 19 19
11 11 12 12 12 12 13 14 15 15 15 16 15 11 7 6 9 10 11 12 12 12 13 16 18 20 24 26 23 22 24 24 22 23 24 20 16 15 16 16 17 18 19 22 25 25 24 24 24 25 25 25 25 25 24 23 23 22 22 21 21 21 22 23 22 22 22 22 22 22 22 22 22 22 22 21 19 18 18 18 19 19 19 19 19
8 9 10 11 11 11 12 13 16 16 15 15 17 17 15 12 10 10 10 12 12 12 12 14 16 18 22 28 28 24 24 25 22 22 23 21 17 15 14 15 15 15 17 20 22 21 21 22 22 22 23 23 23 23 23 23 23 22 22 22 22 21 21 20 20 20 21 21 21 20 20 20 19 19 18 17 17 16 15 14 14 16 16 16 16
6 8 10 12 14 12 11 11 14 15 15 15 14 15 17 17 15 13 11 11 13 13 11 12 16 18 20 26 30 26 22 23 24 22 22 21 19 15 14 14 15 15 16 18 18 18 18 19 19 20 21 21 21 21 21 22 22 22 22 21 21 20 20 19 20 21 21 20 20 19 19 18 18 18 17 16 15 14 13 12 13 13 14 13 12
6 9 12 14 15 15 13 12 11 12 13 14 15 15 16 16 16 16 15 14 15 15 12 11 16 20 21 26 29 27 23 22 23 22 22 22 20 16 13 14 15 16 16 16 15 15 16 16 17 18 19 19 20 20 21 21 21 22 21 21 20 19 19 19 20 21 20 19 18 17 16 15 15 15 15 14 14 13 13 13 12 12 11 10 10
7 10 13 14 13 13 12 10 10 11 12 14 15 15 15 16 15 16 16 15 15 17 15 13 15 19 22 25 27 26 25 23 22 21 22 23 21 18 15 16 17 17 16 15 14 14 15 15 14 14 15 16 18 19 20 20 20 20 20 20 19 19 19 19 19 18 18 17 16 15 14 14 14 13 12 13 13 13 12 12 11 10 10 9 10
7 10 12 12 10 10 10 9 10 12 12 12 13 13 13 15 16 15 15 14 14 15 16 15 15 16 19 24 25 23 23 23 22 21 21 22 22 21 19 18 18 17 16 15 14 14 14 13 13 13 13 13 14 15 16 17 17 17 16 17 18 18 18 18 17 17 17 16 15 14 13 13 13 12 12 13 12 11 11 10 10 9 10 10 10
8 10 12 11 8 9 10 11 12 13 11 10 12 13 13 13 14 14 14 14 14 14 15 16 16 16 17 21 22 20 20 21 21 21 22 22 22 22 22 21 19 18 17 17 15 14 14 13 11 11 11 11 11 12 13 14 14 15 15 16 17 18 17 16 16 16 15 14 12 12 11 11 10 11 11 12 11 11 10 10 10 9 8 8 7
7 9 13 12 8 6 9 11 12 13 11 10 11 12 12 12 13 13 14 13 13 14 14 15 16 15 16 18 20 19 18 19 20 21 22 23 22 21 21 21 20 18 18 19 17 14 13 12 11 10 9 9 10 12 13 13 14 15 16 16 15 15 14 13 13 12 11 11 11 11 11 11 11 11 11 11 10 10 9 9 8 8 7 6 6
3 4 9 10 6 6 8 8 8 9 9 9 10 11 11 11 12 13 13 14 13 12 13 13 13 12 13 16 19 18 17 17 18 20 20 21 20 19 18 19 20 19 18 20 20 16 12 10 10 10 9 9 10 10 11 11 11 11 11 12 11 10 10 11 11 11 11 11 11 11 11 11 11 11 11 11 10 10 9 9 8 7 7 6 8
6 6 8 9 9 11 12 9 7 8 8 8 9 11 11 11 12 12 12 12 12 12 13 13 11 9 11 16 18 18 17 16 16 17 18 18 19 19 17 17 18 17 17 20 21 19 16 14 12 12 11 11 9 8 7 8 9 9 8 9 9 11 11 11 11 11 11 10 10 10 10 10 10 10 10 9 8 7 7 8 7 7 6 4 5
7 8 9 9 11 14 14 11 9 9 9 9 10 11 11 12 12 10 10 11 11 12 13 13 11 8 9 14 17 16 15 15 14 15 15 16 18 19 17 16 16 16 17 18 18 18 18 17 15 13 11 10 8 7 5 5 6 7 7 7 8 9 10 10 10 9 9 9 9 10 9 9 9 8 7 7 7 7 7 6 5 5 5 4 4
6 8 8 8 9 11 12 11 11 10 10 10 9 9 10 12 11 9 9 10 10 10 11 11 11 8 7 11 14 14 14 14 15 14 14 13 14 16 15 15 14 15 15 15 14 14 15 14 13 13 13 12 11 11 11 10 7 5 5 6 8 9 8 7 7 7 8 8 9 10 9 8 7 7 8 8 9 9 8 7 5 4 3 6 7
7 7 8 8 9 9 9 11 12 11 10 9 8 7 9 11 10 10 10 10 10 10 9 9 10 9 8 10 13 13 12 13 14 14 13 12 11 12 12 13 13 13 14 13 11 11 12 12 11 12 13 15 15 13 14 15 15 11 8 6 7 6 5 4 5 6 7 7 6 6 5 5 6 6 7 7 8 7 7 8 7 5 5 7 9
8 7 7 8 9 9 9 10 11 10 9 8 6 6 8 10 10 11 11 10 10 10 9 7 7 9 9 10 11 11 11 11 12 12 12 11 10 9 9 10 10 11 12 12 11 11 10 10 10 11 12 13 13 12 12 13 14 15 14 10 6 6 8 10 10 9 8 7 7 7 4 3 5 7 6 5 5 6 6 7 7 7 8 8 8
8 6 7 8 8 9 9 9 10 10 11 11 9 7 8 9 10 11 12 11 9 9 8 6 5 6 8 9 9 10 10 10 9 9 11 11 9 8 8 8 8 8 8 9 10 10 10 10 10 11 11 10 10 11 11 11 11 12 15 13 11 10 11 11 11 12 10 8 10 12 9 4 4 5 6 6 6 7 8 7 5 5 5 7 7
7 6 7 7 8 8 8 8 9 10 12 13 12 11 10 9 8 8 10 11 10 9 9 8 7 6 7 8 8 8 10 10 8 8 8 9 9 8 8 8 7 7 7 6 6 7 8 8 9 9 9 9 8 9 10 10 11 11 11 10 8 9 8 6 7 10 10 8 11 15 15 11 8 6 6 8 9 8 6 4 4 3 3 3 4
6 6 7 7 7 8 8 8 9 10 11 12 13 13 13 13 10 9 10 11 11 10 9 9 8 7 6 6 6 7 8 8 8 7 7 7 7 8 7 7 6 6 7 7 5 4 4 5 6 6 7 7 8 8 9 10 11 10 6 4 4 5 6 5 5 7 8 7 9 13 13 12 11 11 8 7 6 5 3 3 3 4 4 4 4
4 6 7 7 7 8 8 9 10 11 11 12 13 13 13 14 13 12 11 11 12 12 11 9 9 8 7 7 7 8 7 7 7 7 7 7 7 6 6 7 7 6 7 6 5 4 4 5 5 4 4 5 6 6 7 9 10 8 5 3 2 3 4 5 5 6 6 6 8 11 10 8 8 9 8 7 5 3 3 4 3 2 4 6 5
2 4 6 6 5 7 7 9 11 11 10 12 13 13 12 13 14 15 14 13 13 13 12 11 10 9 9 8 9 9 8 7 7 7 7 7 7 5 5 8 9 8 7 7 6 5 4 4 5 4 2 3 3 5 6 7 8 7 6 5 5 5 6 6 6 5 4 5 7 9 10 9 7 6 6 6 5 4 3 3 2 1 3 5 3
1 3 6 7 7 8 7 7 9 9 9 10 12 12 12 13 13 13 13 14 14 14 13 13 12 10 9 9 9 9 8 8 8 7 7 7 7 6 6 7 9 9 8 6 6 7 6 6 5 5 3 1 1 2 4 6 7 6 7 8 8 8 7 4 3 3 3 3 5 8 9 9 8 7 5 4 5 4 2 1 2 3 2 5 4
2 2 5 7 9 9 7 7 8 9 9 10 12 12 12 13 13 13 12 12 13 13 13 13 13 11 10 9 9 8 7 7 7 7 7 7 7 7 7 6 8 9 8 6 6 7 7 7 7 6 6 5 3 1 3 6 7 8 9 10 9 8 6 3 2 2 2 2 3 6 8 9 8 6 5 5 5 3 2 2 3 3 0 4 4
Wind_Direction
19 19 16 15 13 11 8 6 4 1 357 356 356 353 351 350 345 340 339 338 336 331 328 330 329 323 318 312 309 306 301 294 286 280 273 261 251 247 245 241 241 242 238 231 231 233 224 213 214 217 216 213 213 215 213 210 206 203 203 199 196 197 196 191 182 164 176 188 198 200 199 208 211 193 178 181 187 186 186 196 204 198 195 199 197
19 18 17 15 14 14 12 9 8 6 3 2 360 356 353 353 351 346 344 345 344 340 340 341 338 332 325 316 310 307 301 296 291 281 270 259 248 244 245 243 244 247 244 236 235 239 230 215 214 217 214 212 212 216 213 204 201 202 204 206 202 193 191 192 186 172 168 177 193 201 201 205 206 192 181 183 185 184 186 197 203 197 196 199 199
20 19 18 16 14 15 15 12 10 11 9 5 2 359 356 356 358 355 350 351 352 351 352 351 346 341 333 322 312 307 302 297 296 281 265 260 254 251 250 250 252 252 249 244 243 248 242 223 215 213 209 211 213 215 212 204 203 202 199 206 208 195 190 195 190 178 174 178 191 199 196 192 195 193 186 186 186 184 188 197 198 194 198 204 204
23 21 19 16 14 16 17 14 13 15 13 8 4 3 1 359 2 3 358 357 358 356 357 358 355 350 346 336 321 313 309 303 303 294 275 267 261 256 258 259 259 258 256 255 255 259 256 236 222 217 212 214 215 216 215 208 207 207 197 200 209 201 193 197 196 187 182 179 186 193 189 187 199 202 183 179 186 187 185 192 195 194 200 208 210
25 24 19 16 16 17 17 15 16 17 14 11 8 6 6 3 4 6 4 2 2 359 360 3 2 360 359 355 344 335 332 327 324 317 299 284 272 264 269 269 264 262 263 262 261 263 257 238 227 223 216 216 217 218 220 214 214 218 197 186 201 206 195 193 195 191 184 175 172 185 189 189 202 209 189 174 182 188 188 191 194 195 199 205 209
26 26 22 19 17 17 17 15 16 16 14 14 12 8 9 8 7 8 6 5 5 4 3 5 7 9 10 11 12 11 8 7 2 351 337 323 305 290 289 286 277 274 275 272 267 267 262 243 231 224 217 219 220 219 222 217 216 220 187 168 190 206 198 192 193 189 183 177 172 181 187 186 198 210 207 182 178 184 191 196 196 195 197 198 200
27 26 24 22 20 18 16 14 14 14 15 15 14 12 12 11 11 10 8 8 8 6 5 4 7 13 16 16 19 23 22 19 13 4 358 353 341 320 306 301 290 281 279 277 269 266 268 257 242 228 218 218 220 219 220 220 216 215 198 178 188 201 199 196 193 187 181 175 173 178 182 182 194 208 216 197 180 181 189 197 199 196 196 195 195
28 26 26 24 21 19 17 15 14 14 14 15 15 15 13 12 13 11 11 12 11 8 5 2 5 12 16 12 10 14 19 19 13 4 359 355 349 334 319 314 304 290 284 282 277 272 274 270 257 241 227 221 221 219 218 219 212 209 204 188 186 196 197 193 191 188 183 173 172 180 183 182 190 206 217 203 180 179 189 196 199 195 193 195 195
28 27 28 25 22 21 19 17 16 15 14 15 15 15 14 14 14 13 13 14 13 12 9 6 8 11 13 11 8 7 11 13 10 5 0 355 350 339 323 319 317 308 299 290 284 278 276 274 263 254 243 230 225 221 218 218 213 210 204 187 186 193 191 187 187 188 187 180 177 184 188 190 195 208 223 209 181 180 188 192 196 196 191 190 191
30 28 29 25 22 23 21 19 19 18 17 16 15 15 15 14 14 14 14 13 12 14 15 13 12 12 12 13 12 7 7 8 5 2 2 357 351 343 328 319 316 316 311 300 291 282 276 275 265 257 251 240 230 223 219 220 218 215 209 196 193 193 187 185 185 185 185 184 187 190 190 196 203 210 224 223 190 181 184 185 190 194 187 182 185
32 29 28 25 24 26 24 21 20 20 19 17 15 15 15 16 15 14 14 13 10 12 15 16 15 15 16 15 14 9 7 7 4 0 0 357 350 345 334 323 317 317 319 314 304 297 287 281 273 261 253 247 240 230 218 214 214 213 210 203 196 192 190 190 185 183 184 184 193 201 196 201 208 206 214 221 192 176 181 183 187 192 185 179 181
32 29 27 26 26 26 25 24 24 22 20 18 16 15 15 16 16 13 13 13 11 10 13 14 14 15 15 14 13 11 7 7 5 1 359 356 351 345 338 330 323 316 318 317 311 313 306 293 287 273 257 251 247 238 221 209 208 209 209 204 195 191 194 194 189 188 190 186 193 204 204 209 214 204 205 212 195 177 182 186 187 192 192 186 185
32 29 26 27 26 23 22 23 24 25 24 21 19 18 17 16 15 13 11 11 11 11 12 13 12 11 11 11 11 10 7 6 6 5 1 356 352 347 340 336 331 323 321 317 308 312 316 302 296 288 262 249 248 240 223 209 205 205 204 201 196 192 191 192 192 196 199 197 198 205 209 211 209 205 205 207 201 189 187 188 188 192 198 196 195
34 30 27 28 26 24 21 20 20 24 25 23 23 22 21 19 16 13 11 10 11 10 10 13 13 9 8 9 10 9 6 5 6 7 4 0 356 351 346 341 339 335 331 323 309 306 314 311 304 303 284 246 242 240 228 211 202 198 197 195 195 195 190 187 191 196 201 204 204 206 210 208 202 204 202 198 201 199 193 195 196 195 200 205 206
34 31 30 29 27 24 21 19 18 21 21 21 23 25 24 21 19 17 15 13 12 10 8 11 12 10 8 9 10 10 7 5 7 9 7 4 0 357 355 351 349 348 345 340 330 318 318 317 306 303 294 234 221 226 229 220 209 202 198 195 198 200 198 196 198 199 199 203 207 204 203 199 196 201 198 191 197 196 193 203 218 206 198 202 202
30 31 32 32 30 26 22 20 19 18 20 21 20 21 22 20 19 21 20 19 16 12 9 10 11 11 10 10 10 10 7 5 8 11 10 8 6 6 5 1 358 357 356 355 350 331 320 320 308 289 265 240 224 223 229 224 214 208 201 196 197 201 202 203 204 203 196 198 207 206 194 188 191 196 197 192 193 191 190 202 219 208 181 172 161
27 29 33 33 32 28 24 22 19 18 21 23 20 18 20 18 15 16 21 24 23 17 11 10 11 11 12 11 10 10 8 7 10 12 12 11 12 12 10 7 5 3 6 12 12 350 340 343 331 289 251 248 245 239 232 216 203 204 203 195 190 193 197 200 201 201 196 195 205 207 193 190 198 200 201 199 199 199 194 199 207 195 169 153 145
28 28 32 35 34 31 26 23 21 20 21 24 23 20 19 17 13 11 15 22 25 20 15 12 12 14 15 13 11 11 10 10 13 15 15 15 16 16 13 11 12 10 13 25 33 16 9 13 3 336 279 255 247 244 237 218 204 203 195 183 179 182 188 195 199 200 197 196 201 202 194 194 200 202 202 201 200 202 201 200 200 195 180 157 140
30 28 30 36 36 33 30 24 22 23 22 24 26 23 19 17 14 11 12 16 21 23 20 15 13 15 16 15 15 14 14 15 17 19 18 18 19 19 17 16 15 12 12 15 16 11 13 19 15 5 344 293 246 229 225 215 205 201 187 173 170 178 186 192 197 195 189 188 190 189 186 191 200 204 205 207 207 206 205 198 193 196 192 169 149
33 30 29 35 35 32 32 29 25 25 24 24 27 26 21 19 16 13 12 12 16 23 23 17 15 16 15 16 18 19 18 18 20 22 21 21 21 21 22 20 15 13 15 14 10 9 13 16 16 9 357 335 289 214 201 202 200 200 199 186 174 181 190 192 193 186 172 166 163 156 155 167 184 198 203 209 214 214 212 211 208 210 199 169 155
34 33 30 34 36 33 34 34 29 26 26 25 25 25 24 22 19 15 11 10 13 18 19 16 16 17 15 14 15 17 17 17 18 21 23 23 23 24 25 24 21 20 23 23 20 18 18 18 17 12 3 349 330 281 204 201 195 193 200 196 185 187 190 181 175 169 158 150 143 133 129 130 136 148 156 164 178 183 189 201 209 214 205 174 157
32 31 31 35 41 38 35 35 33 27 25 26 23 22 26 25 20 15 12 11 12 15 14 11 13 17 16 14 11 9 11 15 17 19 21 23 24 26 27 27 26 26 28 29 29 27 25 24 24 22 20 14 354 334 314 228 198 185 188 193 188 182 172 160 153 150 145 138 129 121 117 117 119 118 114 112 119 133 149 168 177 168 160 163 160
28 26 33 38 43 41 33 32 36 29 22 22 22 22 26 26 19 16 15 13 12 13 12 7 8 14 15 15 14 9 7 12 17 19 20 22 23 25 28 29 29 29 30 30 32 32 31 30 30 31 39 45 41 36 44 80 139 145 150 162 164 156 149 145 141 138 135 131 125 119 115 112 109 105 102 101 102 106 112 121 134 138 130 127 135
25 23 33 38 40 41 34 29 37 37 24 18 19 20 23 26 21 16 17 17 14 14 12 6 5 13 15 12 13 11 6 7 12 16 18 20 21 22 24 27 30 33 33 32 34 37 38 37 37 39 48 54 55 63 81 89 101 117 126 134 141 142 142 143 143 137 127 118 111 104 102 104 103 101 102 104 103 103 103 103 107 113 115 113 112
36 29 29 34 37 38 33 26 34 43 30 18 19 20 21 26 25 18 18 19 18 17 14 8 6 14 17 12 8 7 4 360 1 7 13 17 19 20 21 22 25 30 35 37 37 40 44 46 46 47 51 54 52 57 70 79 85 99 112 117 122 128 130 131 129 121 110 102 97 93 92 94 98 102 105 105 105 106 107 107 106 106 109 110 107
46 36 24 29 35 35 32 25 29 39 33 23 24 24 22 26 28 23 20 20 19 20 18 13 11 14 17 12 5 4 3 359 357 360 5 10 13 16 18 20 20 22 28 34 38 42 47 50 52 53 54 56 54 52 58 69 75 80 89 94 95 100 105 105 103 100 97 95 93 92 92 95 101 107 108 105 103 105 108 110 109 110 113 114 109
48 41 26 24 25 29 33 25 19 26 32 32 31 27 25 28 30 28 26 23 21 23 23 18 13 12 14 11 5 4 5 4 2 0 359 1 5 9 15 18 20 20 22 25 30 35 40 46 52 55 57 59 60 57 56 64 68 66 70 79 83 86 91 94 91 87 86 87 90 92 96 100 102 100 98 96 97 102 109 111 108 108 112 114 108
42 44 37 25 13 18 30 24 13 18 31 39 37 29 27 33 35 30 30 32 31 30 30 25 17 13 14 12 6 4 4 5 4 1 357 356 359 5 11 15 18 21 24 27 29 30 31 37 43 48 51 54 55 54 53 58 64 63 63 70 78 83 88 92 90 85 82 84 87 90 95 96 94 90 88 86 85 91 102 107 107 107 109 108 107
30 35 42 33 13 9 22 19 9 15 27 30 26 26 28 33 39 33 28 33 39 40 42 38 28 22 19 13 7 3 2 1 1 1 360 359 360 5 11 14 14 17 23 31 38 38 37 38 39 40 44 46 47 48 48 51 59 63 64 66 72 77 81 83 84 83 83 83 82 82 85 87 85 85 85 81 78 83 92 96 99 104 106 105 106
28 21 25 31 18 9 19 16 2 9 23 18 2 13 33 28 29 31 26 26 32 39 43 40 32 28 25 19 12 7 1 358 358 2 5 5 6 12 17 17 15 15 20 29 38 42 41 41 40 40 42 45 45 45 47 50 54 59 64 68 72 76 79 81 83 86 88 87 84 83 83 81 79 81 82 80 78 81 86 90 94 98 99 98 101
38 24 12 12 11 13 22 13 357 4 19 13 2 10 25 19 16 18 19 20 23 29 34 33 28 27 26 22 17 10 4 1 0 5 9 10 11 17 23 23 21 20 20 26 33 38 40 41 41 40 42 44 46 46 48 53 55 57 62 68 74 79 82 84 88 94 96 95 94 93 92 89 86 85 83 82 82 82 84 88 92 94 93 92 95
30 28 9 357 1 15 25 12 356 360 13 11 6 9 9 7 8 5 5 14 16 15 23 28 26 24 22 18 15 10 5 5 5 7 11 13 13 17 23 28 31 29 26 27 31 34 38 40 40 40 40 42 45 48 50 52 54 55 58 62 66 71 76 81 87 93 95 96 96 97 97 97 98 96 92 90 87 85 87 91 94 96 97 95 96
28 42 27 5 353 359 20 18 360 360 9 6 5 10 7 3 5 3 1 10 13 7 10 22 24 24 18 12 11 10 6 6 10 11 12 14 14 16 23 32 38 39 35 33 33 33 36 40 40 41 41 42 44 48 51 54 57 58 58 59 60 63 68 75 82 84 84 86 88 89 90 92 94 96 97 97 95 95 95 98 101 103 101 99 98
46 61 45 19 354 351 9 17 2 3 11 1 358 11 10 1 2 4 3 10 12 5 3 11 18 21 15 7 7 10 9 9 13 14 14 17 18 21 28 34 39 41 39 37 37 36 36 39 40 42 44 46 48 50 53 55 58 60 61 61 61 62 65 71 76 77 77 79 80 81 85 89 92 95 96 97 98 100 100 102 105 103 98 91 87
56 64 41 22 2 353 1 8 2 9 16 2 358 7 4 357 2 5 5 13 15 6 3 9 12 15 13 7 5 10 12 13 15 14 15 19 21 23 28 31 32 33 32 33 38 42 40 40 42 43 45 49 51 53 55 57 57 58 59 59 62 66 68 70 72 73 73 73 74 77 82 86 89 91 93 94 94 96 99 102 100 97 94 88 80
40 53 30 16 5 351 349 3 15 18 15 3 360 5 1 359 5 4 2 14 19 6 1 6 7 8 9 6 5 10 15 16 17 16 16 20 24 25 26 26 27 26 22 22 32 41 41 41 46 48 49 52 54 54 54 55 55 53 54 58 62 66 67 67 69 71 72 72 74 76 81 85 87 87 90 92 92 92 95 96 94 93 96 93 89
21 48 35 16 2 349 351 7 17 18 20 12 4 5 4 2 5 3 360 10 20 10 0 0 3 7 7 4 4 12 14 12 16 20 18 19 25 27 25 23 25 22 14 12 23 37 39 38 44 50 52 53 56 57 55 53 53 56 61 67 70 71 69 70 72 73 71 69 69 70 75 81 86 90 93 96 97 98 99 99 94 90 91 95 103
34 54 35 15 359 350 2 15 14 9 15 16 5 3 3 358 359 2 1 4 14 11 0 357 5 12 9 3 5 12 10 9 16 23 20 18 19 21 20 19 21 19 12 10 18 33 41 40 41 47 54 58 62 63 62 62 66 69 68 68 69 70 68 68 68 67 64 60 59 65 71 75 79 81 82 84 88 90 93 96 92 81 76 76 80
11 24 13 3 345 327 342 6 16 7 8 14 6 0 1 359 358 1 0 360 4 4 359 1 12 19 13 9 12 12 9 10 19 23 23 22 17 12 13 16 15 14 13 14 17 25 36 42 45 46 48 56 65 68 65 64 67 66 61 56 54 55 60 65 65 63 64 63 61 64 69 73 80 83 80 79 79 73 68 71 76 83 91 77 57
345 339 348 347 336 328 331 346 4 2 7 22 15 3 358 358 358 358 356 355 355 355 358 6 16 20 17 18 20 13 4 9 20 22 23 25 19 10 12 16 14 13 17 20 20 24 29 38 47 48 44 47 56 62 62 59 58 60 61 59 56 56 59 63 64 65 66 65 63 65 69 72 81 89 92 90 87 79 73 74 73 80 91 74 44
347 341 344 342 339 340 343 348 358 10 23 28 21 8 355 348 348 349 348 350 355 357 1 6 9 9 13 22 26 17 3 6 20 24 24 26 20 14 16 20 18 19 24 24 24 26 30 34 40 41 38 39 42 45 50 57 70 82 81 73 71 70 65 63 63 62 59 56 57 66 76 81 81 81 80 81 81 81 85 92 91 81 75 60 60
337 332 341 344 340 340 342 343 354 16 23 16 14 11 351 339 342 346 344 353 3 1 358 1 2 356 360 16 23 20 9 8 17 23 26 29 25 21 24 27 24 22 24 23 23 26 28 29 30 27 25 25 26 29 31 31 41 72 87 84 92 94 84 79 79 70 67 74 77 75 78 84 80 67 59 64 74 72 65 71 87 96 71 59 72
319 322 339 346 339 339 342 344 353 8 9 0 10 18 350 338 346 352 349 357 5 358 356 7 6 353 350 4 11 13 13 13 13 17 25 32 28 25 29 31 27 23 22 21 23 27 27 27 26 23 21 19 18 20 24 26 31 39 45 67 99 96 71 77 92 78 74 82 71 49 55 78 82 76 71 75 82 75 53 51 60 56 41 48 63
310 324 342 344 340 346 348 343 348 2 358 342 352 16 1 351 357 358 352 354 360 355 356 9 6 350 349 358 3 5 10 15 13 12 16 23 26 28 28 24 24 26 23 19 23 28 27 26 25 21 18 16 13 14 18 21 28 35 36 41 60 57 48 62 69 57 54 59 33 8 15 97 100 91 83 76 90 101 84 62 51 44 43 50 57
311 326 340 340 341 347 344 337 347 359 347 331 338 13 17 4 1 356 348 345 351 353 351 353 360 0 359 360 0 360 3 12 19 16 9 9 17 25 20 10 14 26 22 14 17 23 23 22 21 18 20 20 13 12 18 20 20 25 29 32 39 42 44 55 54 38 31 37 29 23 32 71 101 97 75 49 56 89 92 70 53 53 53 47 39
307 326 340 340 342 344 339 335 344 348 340 336 347 5 6 357 357 359 351 343 343 349 350 353 3 12 10 6 4 359 356 2 15 18 7 1 5 12 5 355 3 19 19 15 21 22 16 16 14 12 19 25 13 5 16 22 15 9 11 15 25 30 29 37 45 36 28 25 26 32 43 55 61 68 67 53 54 69 77 60 58 82 92 72 50
304 336 345 343 345 346 338 333 339 344 345 350 358 1 355 351 355 4 1 351 344 341 345 352 357 2 11 16 8 353 348 350 359 6 4 357 357 1 355 348 355 5 4 11 32 36 17 18 18 7 13 23 14 5 11 13 4 358 356 352 1 18 19 20 36 40 34 28 30 36 43 48 47 44 41 37 45 56 52 39 66 100 112 109 101
317 356 347 344 350 344 332 336 347 352 354 359 2 358 352 351 355 358 359 355 348 344 346 351 355 3 16 17 2 355 354 351 353 3 7 0 358 360 350 346 352 347 329 331 1 29 32 38 40 26 22 26 12 359 359 359 355 357 12 26 14 5 351 334 338 2 21 35 39 37 38 41 44 42 33 18 10 359 346 356 21 105 119 102 89
13 5 334 332 340 334 335 349 354 354 359 3 358 351 351 358 1 358 355 354 354 351 349 350 355 5 13 7 359 3 9 3 1 9 10 1 5 11 352 346 355 352 324 312 328 350 360 15 27 30 46 55 29 3 350 343 341 344 353 358 357 351 337 311 300 321 2 31 37 35 32 24 18 24 28 17 356 324 302 323 358 52 139 130 109
13 346 321 319 323 331 350 359 345 340 357 5 354 349 357 4 360 353 353 357 357 352 348 348 350 355 3 4 2 7 12 9 7 11 6 358 6 17 3 349 353 354 342 334 343 345 336 340 360 8 352 333 37 28 350 329 320 326 336 339 340 344 343 319 276 290 343 12 25 31 29 18 9 12 12 353 340 330 292 267 332 354 93 132 133
280 317 311 311 317 327 347 352 337 339 360 3 351 349 359 3 357 353 358 0 355 347 347 349 348 349 359 8 5 2 7 9 7 5 3 359 5 11 7 353 349 351 351 353 2 0 350 345 354 0 350 335 336 7 333 320 315 319 326 329 330 333 332 311 275 302 338 355 21 32 25 10 5 11 3 344 342 354 336 285 292 316 83 139 135
Height
822 822 821 820 819 818 817 816 815 814 812 811 810 809 807 805 803 801 799 797 794 792 790 788 786 785 783 780 778 776 775 774 774 773 772 772 772 774 775 776 777 777 777 778 780 783 782 780 781 782 783 783 784 785 785 786 787 788 789 790 791 792 794 796 798 801 803 805 807 809 811 814 817 817 817 819 822 824 826 828 829 830 832 833 834
823 823 822 822 820 819 818 817 815 814 813 812 811 810 808 806 804 802 799 797 794 792 790 787 786 784 781 778 775 773 772 771 771 771 770 770 770 771 773 774 775 775 775 775 777 780 780 778 778 779 780 781 782 783 783 784 785 786 786 787 788 790 792 793 796 798 801 803 805 807 809 812 814 815 815 816 819 822 824 826 827 828 830 831 832
825 824 823 823 821 820 819 817 816 815 814 813 812 811 809 807 804 802 800 797 795 792 790 787 785 783 779 776 772 770 770 770 770 770 769 768 769 770 772 773 773 774 775 775 776 778 779 777 776 776 777 778 779 780 781 782 782 784 785 786 787 789 790 791 792 794 797 800 803 805 807 809 811 813 813 814 817 820 822 823 825 826 828 829 830
826 825 824 823 822 820 819 818 817 816 815 814 813 811 810 807 805 802 800 798 795 793 790 787 785 782 777 773 771 769 769 769 770 770 769 768 768 769 771 772 773 774 775 775 776 778 780 778 775 775 775 776 777 778 779 780 780 782 785 786 786 788 789 789 790 792 795 798 801 804 806 808 809 811 811 812 815 818 820 822 823 825 826 826 828
827 826 825 824 822 821 820 819 818 817 816 815 814 812 810 808 806 803 800 798 796 793 791 788 785 782 778 774 771 770 770 770 770 770 770 769 769 769 770 771 771 771 772 773 774 776 779 778 774 773 774 774 775 776 777 778 778 780 784 786 786 785 786 787 789 790 792 795 798 801 804 806 807 809 810 811 813 816 818 820 821 823 824 824 825
828 827 826 825 824 823 821 820 819 818 817 816 815 813 811 809 807 804 801 799 797 794 791 789 786 783 780 776 774 772 771 770 769 769 769 769 769 769 770 769 769 768 768 770 772 774 777 777 773 771 772 771 772 774 775 776 776 779 783 785 783 782 783 786 788 789 790 792 794 798 801 803 805 806 808 809 810 812 815 817 818 820 821 822 823
829 828 828 826 826 825 823 822 821 819 818 817 816 815 813 811 808 805 803 801 798 796 793 790 788 785 783 780 777 775 773 770 769 769 769 769 769 768 768 768 767 767 767 768 769 771 774 775 773 771 770 770 770 771 773 774 775 777 780 781 780 780 782 785 786 787 788 789 791 794 797 800 803 804 805 808 808 808 811 814 815 816 818 820 821
830 830 829 828 828 826 825 824 823 822 821 819 818 816 814 812 810 808 805 803 800 798 795 793 790 787 785 783 781 778 775 772 771 771 770 769 769 768 767 767 766 766 766 766 767 768 771 773 773 771 769 768 768 769 771 772 773 774 775 777 778 779 780 782 784 785 786 787 789 792 794 797 800 801 803 805 805 805 808 810 811 813 815 817 818
832 832 831 830 830 828 827 826 825 824 822 820 819 817 815 814 812 810 808 805 803 800 798 795 792 789 786 785 784 781 778 776 775 775 773 771 769 768 767 766 766 766 765 765 765 765 766 770 772 770 769 768 768 768 768 769 770 770 772 773 775 776 778 780 782 783 785 786 787 790 792 794 796 798 799 800 800 802 804 807 809 811 812 815 817
834 833 833 832 831 830 829 828 827 826 824 822 821 819 817 816 814 812 810 807 805 802 799 797 794 792 790 787 786 784 781 780 779 777 775 772 770 768 766 765 765 765 764 764 763 763 764 768 771 770 769 768 767 766 765 766 767 768 769 770 771 773 775 777 779 780 782 784 786 788 789 791 793 794 795 796 797 798 801 803 806 808 810 812 814
835 835 834 833 832 831 831 830 828 827 826 824 823 821 820 818 816 814 811 809 807 804 801 799 797 795 793 790 788 786 784 782 780 777 774 772 770 767 765 764 764 764 763 763 763 763 764 766 769 770 769 768 766 765 764 765 765 766 767 768 769 770 772 774 776 778 780 781 783 785 785 787 790 791 792 794 794 795 797 800 803 806 808 809 812
837 836 835 834 833 832 832 831 830 829 828 826 825 823 821 820 818 816 813 811 809 806 804 802 800 798 796 794 791 789 786 783 779 776 773 771 769 767 765 763 763 762 762 762 763 763 764 765 766 768 769 768 766 764 764 764 765 765 766 767 768 770 771 771 773 775 777 779 781 782 783 784 786 787 789 791 792 793 794 797 800 802 804 806 808
838 838 836 836 835 834 833 832 831 830 829 828 827 825 823 822 820 818 816 814 811 809 807 804 802 801 799 797 795 792 788 784 780 776 773 771 769 766 764 762 762 761 762 762 762 763 763 764 764 764 765 765 766 766 765 765 764 764 765 765 767 769 770 770 770 772 775 777 778 779 781 782 783 784 786 788 791 792 793 795 797 799 801 803 804
840 839 838 838 837 836 835 833 832 831 830 829 828 826 825 824 822 820 818 816 814 811 810 807 805 804 802 800 798 795 792 788 782 778 774 771 769 766 764 762 761 761 762 762 762 762 762 763 763 763 762 762 765 767 768 766 763 762 763 764 765 766 767 768 769 771 774 777 778 778 780 781 781 783 785 786 789 790 790 793 795 797 799 801 802
841 840 840 839 838 838 837 835 834 832 831 830 828 827 826 825 823 822 820 819 817 815 813 811 809 807 805 803 801 798 795 791 786 780 775 772 769 766 764 763 762 762 762 762 762 761 760 760 761 763 763 761 762 765 766 765 763 762 763 763 764 764 765 767 769 770 773 775 776 777 778 779 780 782 784 785 786 788 789 792 795 796 797 799 800
842 841 841 841 840 840 838 837 836 834 832 831 829 828 827 825 824 823 822 821 820 818 816 814 812 810 808 805 802 800 798 794 789 784 779 774 770 767 765 764 763 762 762 762 761 760 760 759 759 761 761 760 760 762 763 762 761 761 762 763 763 764 764 766 767 769 771 773 774 775 776 778 780 781 783 783 785 787 789 792 794 794 795 797 799
844 842 842 842 841 841 840 839 838 836 834 833 832 830 829 828 826 824 823 822 821 820 819 817 815 813 811 808 805 803 800 796 792 787 782 777 772 769 767 766 765 764 762 761 761 760 760 759 758 758 758 758 759 759 759 759 759 760 761 762 762 763 763 764 766 768 770 771 772 773 775 777 779 780 781 782 784 786 788 789 791 792 793 795 797
845 844 843 843 843 843 842 841 840 838 837 835 834 833 832 830 829 827 825 824 822 822 821 820 818 816 814 812 809 806 803 800 796 791 786 782 777 773 771 769 767 766 763 762 761 760 759 759 758 757 757 757 757 757 758 759 759 760 761 761 761 762 762 763 764 767 769 770 771 772 773 775 777 778 779 781 782 784 785 786 788 789 791 793 795
846 845 845 844 844 844 843 843 841 840 839 838 837 836 835 833 832 830 828 826 825 824 823 822 820 818 816 815 812 809 807 803 799 795 790 786 781 778 775 772 769 768 766 763 761 760 759 759 758 757 757 756 755 754 756 758 757 758 759 760 760 760 761 762 764 765 767 769 770 770 771 773 776 777 778 779 781 782 783 784 785 786 787 789 792
847 847 846 845 845 845 845 844 843 842 841 840 839 839 837 836 835 833 831 829 827 826 824 823 822 820 818 816 814 812 809 806 803 799 795 791 787 783 779 775 773 772 769 766 763 761 760 759 758 757 757 756 754 753 753 755 756 757 758 759 759 759 760 762 763 765 767 768 769 770 771 773 776 777 778 779 779 780 782 784 785 785 785 786 787
849 848 848 847 847 847 846 846 845 844 843 842 841 840 839 838 837 835 833 831 829 828 826 825 823 822 820 818 816 814 812 809 806 802 799 796 792 788 784 781 778 776 773 770 767 765 763 762 760 759 757 756 755 753 752 753 754 755 756 757 758 758 760 762 763 764 766 768 769 770 772 774 776 777 778 779 780 780 782 783 784 784 785 786 787
850 849 848 848 847 847 847 847 846 846 845 844 843 842 841 840 839 837 836 834 832 830 829 827 825 823 822 820 818 816 814 811 808 805 802 799 796 793 790 787 784 781 777 773 771 769 768 766 764 762 760 757 756 754 752 752 752 753 755 755 756 757 759 762 763 764 766 768 770 772 774 776 778 779 780 780 780 781 782 783 783 784 785 788 788
851 850 849 849 848 848 848 848 847 847 847 845 844 843 842 842 841 839 838 836 834 832 831 829 826 825 823 822 820 818 815 813 810 807 804 802 799 797 794 791 788 785 781 779 776 774 772 770 767 765 762 759 758 756 754 753 753 753 754 755 756 758 760 762 764 766 768 770 772 774 776 778 779 780 781 782 782 783 783 783 784 785 787 790 791
853 851 850 850 849 849 849 849 848 848 847 846 845 844 843 843 842 841 840 838 836 835 833 831 828 826 825 824 822 820 818 815 813 810 807 805 802 800 797 795 792 789 786 784 781 778 775 773 771 768 765 763 762 760 756 755 755 755 756 757 758 759 761 764 766 767 769 771 773 775 777 779 781 781 782 783 784 785 785 785 786 787 788 791 793
854 853 852 851 851 850 850 849 848 848 848 847 846 845 844 844 843 843 842 840 838 837 835 834 831 829 828 826 824 822 820 817 815 812 810 807 805 803 800 798 795 793 791 788 786 783 780 777 775 772 769 767 767 765 760 758 759 759 759 759 759 758 761 764 766 767 769 772 774 776 778 780 782 783 784 785 786 786 787 788 789 790 791 793 794
855 855 854 853 852 851 851 850 849 848 848 848 847 847 846 845 844 844 843 842 841 839 838 836 834 832 831 829 827 825 822 820 817 814 811 809 807 805 803 800 798 796 794 792 790 787 784 781 778 776 773 771 771 771 767 763 762 763 762 761 761 761 762 764 766 768 771 774 775 777 779 781 783 784 786 787 788 789 790 790 791 793 794 795 796
856 856 855 854 853 852 851 851 850 849 848 848 848 848 847 846 846 845 844 843 842 841 840 839 837 834 833 832 830 827 824 822 819 815 813 811 809 807 805 802 800 798 795 794 792 790 788 785 783 780 779 776 775 776 773 768 767 767 766 765 766 766 766 767 769 772 775 777 778 779 781 782 783 785 786 788 789 791 793 793 793 795 796 796 798
857 856 856 856 854 853 852 852 850 849 848 848 848 848 847 847 846 846 845 844 843 842 842 841 839 837 835 834 832 829 827 824 821 818 816 813 811 809 808 805 803 801 799 797 795 793 791 788 786 784 783 781 780 779 778 775 773 774 774 772 771 772 772 772 772 776 779 781 782 782 782 783 785 786 788 789 791 793 794 795 796 797 798 798 800
858 857 857 857 856 855 854 853 852 850 849 849 848 848 848 848 847 847 846 845 844 844 843 842 841 839 838 836 833 831 828 826 824 821 818 816 814 812 810 809 807 805 803 801 798 795 793 791 790 788 787 786 785 784 783 782 780 780 780 779 777 776 777 777 777 780 784 786 786 786 786 786 787 788 789 790 792 794 796 797 798 799 800 801 803
859 859 858 857 857 856 855 854 853 852 851 850 849 848 848 848 848 847 847 846 845 844 843 843 842 841 839 837 835 833 831 828 826 823 820 818 816 814 812 811 810 808 806 804 801 798 797 796 795 794 793 791 790 790 789 788 787 786 786 785 784 783 783 783 784 786 788 790 790 791 790 789 790 790 791 793 795 797 799 799 800 802 803 804 805
860 860 859 858 857 856 856 855 854 853 852 852 851 849 848 848 848 847 847 846 845 845 844 843 842 841 839 837 836 834 832 830 827 824 822 819 817 816 814 813 811 810 808 806 804 802 801 800 800 799 798 797 796 795 794 793 792 792 791 790 790 789 789 789 789 790 792 792 793 794 794 794 794 795 796 797 799 800 801 802 803 804 806 807 808
860 860 860 859 858 857 856 856 855 854 853 852 852 851 850 849 848 847 847 846 846 845 844 844 843 841 840 838 836 834 832 830 827 825 823 821 819 817 816 815 813 812 810 809 807 806 805 804 803 803 802 801 800 799 798 797 796 796 795 794 794 793 793 793 794 794 794 795 796 797 797 797 798 799 800 801 802 804 805 806 807 808 808 809 810
860 860 860 859 858 857 856 856 856 855 854 854 853 852 852 851 849 848 847 847 846 845 845 844 843 842 840 839 837 835 833 831 829 826 824 822 820 819 817 816 815 814 812 811 810 809 808 807 806 806 805 805 804 803 802 801 800 799 798 798 798 797 797 797 797 797 797 798 799 800 800 801 801 802 803 804 805 807 808 809 810 810 810 811 811
860 860 860 860 859 858 857 857 857 856 856 855 854 853 853 852 851 849 848 847 847 846 845 844 844 842 841 840 838 836 834 832 830 828 826 824 821 820 819 818 816 815 814 813 812 812 811 810 809 808 808 807 807 806 805 804 803 802 802 802 801 801 801 800 800 800 801 802 802 803 803 804 804 805 806 807 807 808 809 810 811 811 811 812 812
860 860 860 860 860 859 858 857 857 856 856 856 855 854 854 852 851 851 849 848 848 848 846 846 845 844 842 841 839 837 835 833 832 830 828 825 823 822 820 819 818 817 816 815 815 814 813 813 812 811 810 810 809 809 808 808 807 806 805 805 805 804 804 804 804 804 805 805 805 806 806 807 807 808 808 809 809 810 811 811 812 813 813 813 814
860 860 860 860 860 859 858 857 857 856 856 856 856 855 854 853 852 852 850 850 849 849 848 847 846 845 843 842 840 838 836 835 833 831 829 827 826 824 822 821 820 819 819 818 817 816 815 815 814 814 813 812 812 811 811 811 810 809 809 808 808 807 807 807 807 807 808 808 808 808 809 809 810 810 810 811 811 812 812 813 813 813 814 815 815
861 860 861 861 860 859 858 858 857 857 857 857 856 856 855 854 853 852 851 850 850 849 848 847 846 845 844 842 841 839 837 836 834 833 831 829 827 826 825 824 823 822 821 819 818 818 817 817 817 816 815 815 814 814 813 813 813 812 812 811 810 810 810 810 810 810 810 810 811 811 811 812 812 812 812 813 813 814 814 814 815 815 815 816 817
862 861 861 861 860 859 858 858 857 857 857 857 856 856 855 855 854 853 852 851 850 849 848 847 846 845 844 843 841 840 838 837 835 833 832 831 830 828 828 827 825 824 823 821 820 820 819 819 819 818 817 817 816 816 816 816 815 814 814 813 813 813 813 813 813 813 813 813 813 813 813 814 814 814 814 814 815 815 816 816 816 816 817 817 818
862 861 861 861 860 859 858 857 857 856 856 856 856 856 855 855 854 853 852 851 850 849 848 847 846 846 845 844 842 841 839 837 836 835 834 833 832 831 830 829 828 827 825 824 823 822 821 821 820 820 819 819 819 818 818 817 817 816 816 816 815 815 815 815 815 815 815 815 815 815 815 815 816 816 816 816 817 817 817 817 818 818 819 819 820
862 862 861 860 859 859 857 856 856 855 855 855 856 856 855 855 854 853 852 851 851 849 848 847 847 846 846 845 843 841 840 838 837 837 836 835 834 833 832 831 830 829 827 826 825 824 823 823 822 822 821 821 821 820 820 819 818 818 818 818 817 817 817 817 817 817 816 817 817 817 817 817 817 818 818 818 819 819 819 819 820 820 820 821 821
863 862 861 860 859 858 857 856 856 855 855 855 856 856 856 855 854 853 853 851 851 850 849 848 847 846 846 845 844 842 841 840 839 838 837 836 836 835 833 833 832 831 830 828 828 827 826 825 824 824 824 823 823 822 821 821 820 820 819 819 819 819 819 819 819 819 818 818 818 818 819 819 819 819 820 820 820 821 821 821 822 822 822 822 822
863 862 861 860 860 859 858 857 856 855 855 856 855 856 856 855 854 853 852 851 850 850 849 848 848 847 846 845 844 843 842 841 840 839 838 838 837 836 835 835 834 833 832 831 830 829 828 827 826 826 825 825 824 823 823 822 822 821 821 820 820 821 821 820 820 820 820 820 820 820 820 820 821 821 821 821 821 822 822 822 823 823 823 823 823
862 861 860 860 859 859 858 857 856 855 855 855 855 855 855 854 853 853 852 851 851 850 849 848 848 847 846 845 844 844 843 842 841 841 839 839 838 837 836 836 835 834 833 832 831 830 830 829 828 828 827 826 825 824 824 823 822 822 822 822 822 822 822 822 822 822 822 822 822 822 822 822 822 822 822 823 823 823 823 823 823 824 824 824 824
862 861 860 860 859 858 858 857 856 855 855 854 854 853 853 853 853 853 852 851 851 850 849 848 848 847 847 845 845 844 843 843 842 842 841 840 839 838 837 837 836 835 835 834 833 832 831 831 830 829 828 827 826 826 825 825 824 824 824 824 823 824 823 823 824 824 824 824 823 823 823 823 823 823 824 824 824 824 825 825 825 824 824 824 825
861 860 860 859 859 858 858 857 856 855 855 854 853 852 852 852 852 852 852 851 850 850 849 848 847 847 846 846 845 844 844 843 842 842 841 841 840 839 838 838 837 836 835 835 834 833 833 832 832 831 830 829 828 827 827 826 826 826 826 825 825 824 824 824 825 825 825 825 824 824 823 823 824 824 825 825 825 825 825 826 826 826 826 825 825
861 860 859 859 859 858 857 857 856 855 854 853 853 852 852 851 851 851 851 851 850 849 849 848 847 847 846 845 845 844 844 843 842 842 841 841 841 839 838 838 837 837 836 835 834 834 834 833 833 832 831 831 830 829 828 828 827 827 827 827 826 826 826 825 825 825 826 826 826 825 825 824 824 825 825 825 825 826 826 827 827 826 827 827 826
860 859 859 859 858 858 857 856 855 855 854 853 853 852 852 851 850 850 850 850 850 849 849 848 847 846 845 845 845 844 843 843 842 842 841 841 840 840 839 838 837 837 836 836 835 834 834 834 833 833 833 832 832 831 830 830 829 829 828 828 828 827 827 827 827 827 827 827 827 827 826 826 826 826 826 826 826 827 827 827 827 827 827 828 828
859 859 859 859 858 858 857 856 855 854 854 854 853 853 852 852 851 850 850 849 849 849 848 848 847 846 845 845 844 843 843 843 842 842 842 841 840 840 840 839 838 837 836 836 836 835 834 834 833 833 833 833 833 833 832 831 831 830 829 829 829 829 828 828 828 828 828 828 827 827 827 827 827 828 827 828 828 828 828 828 828 828 828 828 828
858 859 859 858 857 857 856 856 855 855 854 854 854 853 852 852 851 850 850 849 849 848 848 847 847 846 845 845 844 844 843 843 842 842 842 841 840 840 839 839 838 838 837 836 835 835 834 834 833 833 833 833 833 833 833 832 832 831 831 830 830 830 829 829 829 829 829 829 828 828 828 828 828 828 828 829 829 829 828 828 828 828 829 829 829
857 858 858 857 856 856 855 856 855 855 854 854 854 853 852 852 851 851 850 850 849 848 848 847 847 846 845 845 844 844 843 843 843 842 842 841 841 840 839 839 838 838 837 836 835 835 834 834 834 833 833 833 833 833 833 833 832 832 831 831 831 830 830 830 830 830 830 830 830 829 829 829 829 829 829 829 829 829 829 828 828 828 829 829 829
856 856 857 857 856 855 855 855 855 854 854 854 854 853 853 852 852 851 851 850 850 849 848 847 847 846 846 845 844 844 843 843 843 842 842 841 841 840 839 839 838 838 837 837 836 835 835 835 834 834 834 834 833 833 833 833 832 832 831 831 831 831 830 830 830 831 831 831 831 831 831 831 830 830 830 829 829 829 829 829 828 828 829 829 829